Location: Briis
(48.6240°N, 2.1211°E)
Time: 03:46:28
(UTC+00:00)

Cosmos 1238 Rocket - Pass Details

Date: 25 September 2020
Orbit: 375 x 1028 km, 82.9° (Epoch: 22 October)

Event Time Altitude Azimuth Distance (km) Brightness Sun altitude
Rises 02:23:25 0° 351° (N) 3,783 7.5 -31.3°
Reaches altitude 10° 02:26:06 10° 353° (N) 2,804 6.7 -30.9°
Maximum altitude 02:32:39 79° 80° (E) 968 3.9 -30.1°
Enters shadow 02:32:54 78° 111° (ESE) 969 3.9 -30.1°
